Radiation Dose at Monitoring Post of Fukushima Daini Nuclear Power Station
Date,Time,MP-1(microSv/h),MP-2(microSv/h),MP-3(microSv/h),MP-4(microSv/h),MP-5(microSv/h),MP-6(microSv/h),MP-7(microSv/h),Wind Direction,Wind Velocity(m/s),Rain
2021/05/02,00:00,0.161,0.149,0.237,0.225,0.230,0.128,0.080,north-northwest,7.1,No
2021/05/02,00:10,0.162,0.149,0.237,0.226,0.229,0.127,0.080,north-northwest,7.3,No
2021/05/02,00:20,0.163,0.148,0.236,0.225,0.229,0.126,0.080,north-northwest,6.8,No
2021/05/02,00:30,0.161,0.149,0.237,0.226,0.230,0.127,0.080,north-northwest,5.7,No
2021/05/02,00:40,0.162,0.149,0.236,0.225,0.229,0.126,0.080,north,5.5,No
2021/05/02,00:50,0.162,0.149,0.237,0.224,0.230,0.126,0.079,north,3.9,No
2021/05/02,01:00,0.162,0.149,0.237,0.225,0.228,0.125,0.079,north-northwest,2.8,No
2021/05/02,01:10,0.163,0.150,0.235,0.226,0.230,0.127,0.080,north,3.3,No
2021/05/02,01:20,0.162,0.149,0.236,0.225,0.229,0.126,0.079,north,4.0,No
2021/05/02,01:30,0.163,0.149,0.236,0.226,0.228,0.127,0.078,north,4.3,No
2021/05/02,01:40,0.161,0.148,0.237,0.225,0.229,0.127,0.080,east,1.6,No
2021/05/02,01:50,0.162,0.148,0.237,0.226,0.227,0.126,0.079,-,CALM,No
2021/05/02,02:00,0.162,0.149,0.236,0.225,0.230,0.126,0.079,north-northeast,4.1,No
2021/05/02,02:10,0.161,0.148,0.237,0.225,0.229,0.126,0.079,north-northeast,2.9,No
2021/05/02,02:20,0.163,0.148,0.236,0.226,0.230,0.127,0.079,north-northeast,2.3,No
2021/05/02,02:30,0.162,0.148,0.237,0.226,0.230,0.127,0.079,north-northwest,3.8,No
2021/05/02,02:40,0.162,0.148,0.237,0.225,0.229,0.126,0.079,northwest,3.3,No
2021/05/02,02:50,0.163,0.149,0.236,0.226,0.230,0.126,0.079,north-northwest,1.7,No
2021/05/02,03:00,0.162,0.149,0.237,0.226,0.228,0.126,0.079,northwest,2.0,No
2021/05/02,03:10,0.163,0.148,0.237,0.226,0.231,0.126,0.079,northwest,2.7,No
2021/05/02,03:20,0.162,0.148,0.237,0.225,0.229,0.127,0.079,northwest,2.9,No
2021/05/02,03:30,0.162,0.149,0.238,0.225,0.229,0.128,0.079,northwest,3.2,No
2021/05/02,03:40,0.163,0.148,0.237,0.226,0.230,0.126,0.079,north-northwest,3.4,No
2021/05/02,03:50,0.161,0.148,0.237,0.225,0.227,0.127,0.080,northwest,2.7,No
2021/05/02,04:00,0.164,0.149,0.237,0.227,0.229,0.127,0.079,northwest,6.4,No
2021/05/02,04:10,0.163,0.150,0.237,0.225,0.229,0.127,0.079,northwest,5.1,Yes
2021/05/02,04:20,0.164,0.150,0.238,0.226,0.230,0.128,0.080,northwest,6.8,Yes
2021/05/02,04:30,0.166,0.151,0.237,0.227,0.230,0.130,0.083,north-northwest,5.4,Yes
2021/05/02,04:40,0.164,0.151,0.238,0.227,0.231,0.130,0.082,north-northwest,5.0,Yes
2021/05/02,04:50,0.165,0.150,0.239,0.228,0.231,0.129,0.082,north-northwest,5.5,No
2021/05/02,05:00,0.164,0.150,0.238,0.227,0.230,0.128,0.081,west-northwest,5.2,Yes
2021/05/02,05:10,0.164,0.150,0.237,0.226,0.230,0.130,0.082,northwest,5.7,Yes
2021/05/02,05:20,0.164,0.151,0.239,0.228,0.230,0.129,0.082,north-northwest,6.4,No
2021/05/02,05:30,0.162,0.151,0.238,0.227,0.230,0.129,0.081,northwest,5.7,No
2021/05/02,05:40,0.164,0.150,0.237,0.225,0.232,0.128,0.081,north-northwest,6.1,No
2021/05/02,05:50,0.163,0.149,0.237,0.228,0.230,0.128,0.081,north,5.7,No
2021/05/02,06:00,0.163,0.150,0.237,0.226,0.230,0.128,0.081,north,5.5,No
2021/05/02,06:10,0.163,0.150,0.236,0.225,0.230,0.128,0.079,north,4.6,No
2021/05/02,06:20,0.162,0.149,0.238,0.225,0.229,0.126,0.080,north,5.3,No
2021/05/02,06:30,0.162,0.148,0.236,0.225,0.230,0.128,0.080,north-northeast,5.6,Yes
2021/05/02,06:40,0.162,0.149,0.236,0.226,0.228,0.128,0.079,north-northwest,4.6,Yes
2021/05/02,06:50,0.163,0.149,0.238,0.226,0.231,0.127,0.080,north-northwest,3.9,Yes
2021/05/02,07:00,0.164,0.151,0.237,0.226,0.231,0.129,0.081,north,4.1,Yes
2021/05/02,07:10,0.166,0.152,0.238,0.229,0.232,0.130,0.082,north-northwest,3.4,Yes
2021/05/02,07:20,0.168,0.155,0.240,0.229,0.235,0.133,0.085,east-northeast,1.4,Yes
2021/05/02,07:30,0.169,0.155,0.241,0.231,0.236,0.135,0.086,east-northeast,2.2,Yes
2021/05/02,07:40,0.169,0.156,0.242,0.231,0.238,0.135,0.088,northeast,2.4,Yes
2021/05/02,07:50,0.170,0.156,0.243,0.232,0.236,0.135,0.088,east,1.5,Yes
2021/05/02,08:00,0.169,0.156,0.242,0.233,0.236,0.134,0.087,northeast,1.4,No
2021/05/02,08:10,0.168,0.154,0.242,0.228,0.234,0.134,0.086,northeast,1.6,No
2021/05/02,08:20,0.167,0.154,0.240,0.231,0.235,0.132,0.084,north-northeast,2.0,No
2021/05/02,08:30,0.165,0.152,0.239,0.228,0.232,0.131,0.084,northeast,1.2,No
2021/05/02,08:40,0.166,0.153,0.237,0.228,0.231,0.130,0.083,east,2.0,No
2021/05/02,08:50,0.164,0.150,0.239,0.227,0.230,0.130,0.082,northeast,1.9,No
2021/05/02,09:00,0.165,0.151,0.237,0.225,0.231,0.128,0.081,northeast,2.0,No
2021/05/02,09:10,0.163,0.150,0.236,0.226,0.230,0.128,0.082,east-northeast,1.6,No
2021/05/02,09:20,0.164,0.150,0.238,0.225,0.230,0.128,0.081,east-southeast,1.6,No
2021/05/02,09:30,0.162,0.150,0.236,0.226,0.228,0.128,0.080,east-northeast,2.1,No
2021/05/02,09:40,0.163,0.149,0.237,0.225,0.230,0.127,0.080,east-northeast,1.7,No
2021/05/02,09:50,0.161,0.148,0.237,0.225,0.229,0.129,0.080,east-southeast,1.7,No
2021/05/02,10:00,0.163,0.149,0.234,0.227,0.231,0.127,0.080,east-northeast,1.4,No
2021/05/02,10:10,0.162,0.147,0.236,0.223,0.229,0.129,0.081,east,2.0,Yes
2021/05/02,10:20,0.163,0.149,0.236,0.225,0.228,0.128,0.081,east,1.2,No
2021/05/02,10:30,0.163,0.149,0.238,0.225,0.230,0.128,0.080,southeast,1.1,No
2021/05/02,10:40,0.163,0.149,0.237,0.226,0.229,0.128,0.081,east,1.7,No
2021/05/02,10:50,0.163,0.149,0.236,0.227,0.232,0.127,0.080,east-southeast,1.5,No
2021/05/02,11:00,0.162,0.149,0.237,0.225,0.229,0.128,0.079,east-southeast,2.6,No
2021/05/02,11:10,0.162,0.148,0.236,0.227,0.227,0.128,0.079,east,1.4,No
2021/05/02,11:20,0.161,0.148,0.238,0.227,0.230,0.126,0.079,east-southeast,4.1,No
2021/05/02,11:30,0.163,0.149,0.236,0.224,0.229,0.128,0.080,east,2.4,Yes
2021/05/02,11:40,0.162,0.149,0.235,0.227,0.227,0.127,0.080,east-southeast,2.9,Yes
2021/05/02,11:50,0.163,0.149,0.239,0.226,0.231,0.128,0.080,east,2.1,Yes
2021/05/02,12:00,0.165,0.151,0.238,0.229,0.231,0.129,0.081,east-northeast,2.1,Yes
2021/05/02,12:10,0.166,0.152,0.241,0.229,0.235,0.129,0.080,east-southeast,2.4,No
2021/05/02,12:20,0.166,0.152,0.241,0.231,0.233,0.130,0.080,southeast,2.0,No
2021/05/02,12:30,0.165,0.151,0.238,0.228,0.234,0.129,0.081,southeast,2.7,No
2021/05/02,12:40,0.165,0.150,0.239,0.229,0.230,0.129,0.080,east-southeast,1.9,No
2021/05/02,12:50,0.165,0.151,0.238,0.227,0.233,0.128,0.080,south-southeast,2.1,No
2021/05/02,13:00,0.164,0.151,0.238,0.229,0.229,0.128,0.081,south-southeast,3.4,No
2021/05/02,13:10,0.162,0.150,0.238,0.226,0.232,0.128,0.080,south-southeast,2.8,No
2021/05/02,13:20,0.164,0.149,0.238,0.227,0.231,0.129,0.080,south,3.0,No
2021/05/02,13:30,0.163,0.150,0.238,0.225,0.229,0.128,0.080,south,3.1,No
2021/05/02,13:40,0.164,0.149,0.238,0.227,0.229,0.128,0.080,south,3.3,No
2021/05/02,13:50,0.162,0.149,0.238,0.227,0.230,0.129,0.080,south,2.5,No
2021/05/02,14:00,0.163,0.149,0.239,0.227,0.229,0.128,0.079,west-southwest,2.6,Yes
2021/05/02,14:10,0.164,0.151,0.238,0.228,0.231,0.132,0.083,west,1.7,Yes
2021/05/02,14:20,0.168,0.154,0.240,0.230,0.233,0.134,0.086,west,0.8,Yes
2021/05/02,14:30,0.169,0.155,0.241,0.231,0.237,0.135,0.087,southeast,2.3,Yes
2021/05/02,14:40,0.168,0.154,0.242,0.232,0.235,0.135,0.087,southeast,2.2,No
2021/05/02,14:50,0.168,0.154,0.242,0.231,0.237,0.134,0.086,south-southeast,1.7,No
2021/05/02,15:00,0.165,0.154,0.240,0.230,0.232,0.133,0.086,south-southeast,1.7,No
2021/05/02,15:10,0.167,0.152,0.240,0.229,0.234,0.132,0.084,south,1.9,No
2021/05/02,15:20,0.165,0.152,0.240,0.228,0.232,0.131,0.083,south-southeast,2.2,No
2021/05/02,15:30,0.165,0.151,0.238,0.229,0.230,0.131,0.083,south-southwest,3.1,No
2021/05/02,15:40,0.165,0.151,0.239,0.227,0.230,0.130,0.083,south-southwest,2.6,No
2021/05/02,15:50,0.164,0.150,0.237,0.229,0.231,0.129,0.082,south-southwest,3.5,No
2021/05/02,16:00,0.164,0.150,0.239,0.225,0.230,0.129,0.081,south-southwest,3.0,No
2021/05/02,16:10,0.164,0.149,0.236,0.225,0.230,0.130,0.081,south-southwest,3.2,No
2021/05/02,16:20,0.163,0.149,0.238,0.226,0.232,0.129,0.081,south-southwest,3.3,No
2021/05/02,16:30,0.162,0.149,0.237,0.225,0.228,0.128,0.081,south-southwest,3.0,No
2021/05/02,16:40,0.163,0.149,0.235,0.226,0.230,0.127,0.081,south-southwest,2.8,No
2021/05/02,16:50,0.162,0.149,0.238,0.225,0.229,0.128,0.080,south-southwest,5.1,No
2021/05/02,17:00,0.163,0.149,0.237,0.226,0.230,0.127,0.079,south-southwest,4.1,No
2021/05/02,17:10,0.162,0.149,0.236,0.226,0.228,0.128,0.080,south-southwest,4.4,No
2021/05/02,17:20,0.162,0.148,0.237,0.225,0.230,0.128,0.080,south-southwest,3.2,No
2021/05/02,17:30,0.164,0.148,0.237,0.226,0.229,0.127,0.080,south,2.5,No
2021/05/02,17:40,0.163,0.147,0.237,0.225,0.228,0.127,0.080,south-southwest,2.5,No
2021/05/02,17:50,0.164,0.148,0.237,0.226,0.232,0.127,0.079,south,1.1,No
2021/05/02,18:00,0.163,0.149,0.236,0.224,0.229,0.128,0.081,-,CALM,No
2021/05/02,18:10,0.164,0.149,0.238,0.226,0.230,0.127,0.080,northwest,3.2,No
2021/05/02,18:20,0.162,0.149,0.236,0.226,0.228,0.127,0.080,west-northwest,4.2,Yes
2021/05/02,18:30,0.162,0.149,0.238,0.226,0.230,0.129,0.081,west-northwest,5.7,Yes
2021/05/02,18:40,0.164,0.149,0.237,0.227,0.229,0.128,0.080,west-northwest,5.8,No
2021/05/02,18:50,0.162,0.150,0.236,0.227,0.228,0.128,0.080,west-northwest,6.4,No
2021/05/02,19:00,0.164,0.149,0.238,0.227,0.231,0.127,0.080,west-northwest,5.6,No
2021/05/02,19:10,0.163,0.149,0.237,0.228,0.229,0.128,0.079,west,5.9,No
2021/05/02,19:20,0.163,0.150,0.236,0.226,0.231,0.128,0.080,west-northwest,4.6,No
2021/05/02,19:30,0.163,0.149,0.237,0.226,0.229,0.129,0.080,northwest,3.3,No
2021/05/02,19:40,0.161,0.149,0.236,0.227,0.230,0.128,0.079,north-northwest,7.6,No
2021/05/02,19:50,0.163,0.149,0.237,0.225,0.230,0.127,0.080,northwest,11.2,No
2021/05/02,20:00,0.163,0.149,0.237,0.227,0.229,0.128,0.080,west-northwest,10.3,No
2021/05/02,20:10,0.162,0.148,0.236,0.227,0.231,0.128,0.079,northwest,9.5,No
2021/05/02,20:20,0.164,0.150,0.237,0.226,0.230,0.128,0.079,northwest,10.1,No
2021/05/02,20:30,0.164,0.148,0.237,0.227,0.228,0.128,0.079,northwest,10.0,No
2021/05/02,20:40,0.164,0.149,0.237,0.226,0.230,0.128,0.079,northwest,8.4,No
2021/05/02,20:50,0.163,0.149,0.238,0.226,0.229,0.129,0.080,north-northwest,7.4,No
2021/05/02,21:00,0.163,0.149,0.237,0.227,0.229,0.128,0.079,north-northwest,7.7,No
2021/05/02,21:10,0.163,0.149,0.238,0.227,0.230,0.128,0.079,northwest,7.7,No
2021/05/02,21:20,0.165,0.149,0.238,0.227,0.229,0.128,0.080,northwest,9.8,No
2021/05/02,21:30,0.163,0.149,0.238,0.226,0.229,0.128,0.080,northwest,11.4,No
2021/05/02,21:40,0.163,0.149,0.237,0.226,0.229,0.128,0.080,northwest,9.5,No
2021/05/02,21:50,0.164,0.148,0.238,0.227,0.228,0.129,0.080,northwest,9.2,No
2021/05/02,22:00,0.163,0.149,0.237,0.227,0.229,0.128,0.079,northwest,9.3,No
2021/05/02,22:10,0.163,0.148,0.238,0.227,0.230,0.128,0.079,northwest,8.6,No
2021/05/02,22:20,0.163,0.148,0.238,0.226,0.228,0.128,0.080,northwest,8.7,No
2021/05/02,22:30,0.163,0.150,0.237,0.226,0.230,0.127,0.079,northwest,9.0,No
2021/05/02,22:40,0.163,0.148,0.238,0.227,0.229,0.127,0.079,northwest,8.6,No
2021/05/02,22:50,0.164,0.148,0.237,0.226,0.228,0.128,0.079,northwest,10.7,No
2021/05/02,23:00,0.163,0.150,0.238,0.227,0.230,0.128,0.079,northwest,8.8,No
2021/05/02,23:10,0.163,0.148,0.238,0.226,0.229,0.128,0.079,northwest,6.5,No
2021/05/02,23:20,0.163,0.148,0.238,0.227,0.229,0.128,0.079,west-northwest,5.6,No
2021/05/02,23:30,0.164,0.148,0.238,0.226,0.229,0.127,0.079,west-northwest,7.6,No
2021/05/02,23:40,0.164,0.149,0.238,0.227,0.230,0.127,0.080,northwest,7.5,No
2021/05/02,23:50,0.163,0.149,0.238,0.227,0.229,0.127,0.079,west-northwest,8.8,No
